| time (UTC) | temp C | wind direction | speed KPH | gust KPH | rain 1hr cm | rain 24hr cm | rain mn cm | humidity % | barometer mb |
| 20260505095434 | 7 | 190 | 3.2 | 16.1 | 0.00 | 0.00 | 0.00 | 90 | 1011.4 |
| 20260505094424 | 7 | 215 | 3.2 | 11.3 | 0.00 | 0.00 | 0.00 | 90 | 1011.2 |
| 20260505092321 | 7 | 179 | 3.2 | 14.5 | 0.00 | 0.00 | 0.00 | 90 | 1011.1 |
| 20260505090148 | 7 | 250 | 4.8 | 17.7 | 0.00 | 0.00 | 0.00 | 89 | 1011.1 |
| 20260505085132 | 7 | 209 | 3.2 | 14.5 | 0.00 | 0.00 | 0.00 | 89 | 1011.0 |
| 20260505084118 | 7 | 252 | 3.2 | 14.5 | 0.00 | 0.00 | 0.00 | 89 | 1011.1 |
| 20260505083117 | 7 | 184 | 3.2 | 12.9 | 0.00 | 0.00 | 0.00 | 89 | 1011.1 |
| 20260505082128 | 7 | 232 | 3.2 | 12.9 | 0.00 | 0.00 | 0.00 | 89 | 1011.2 |
| 20260505081104 | 7 | 215 | 3.2 | 12.9 | 0.00 | 0.00 | 0.00 | 89 | 1011.3 |
| 20260505080116 | 7 | 147 | 3.2 | 12.9 | 0.00 | 0.00 | 0.00 | 89 | 1011.2 |
| 20260505075054 | 7 | 267 | 1.6 | 12.9 | 0.00 | 0.00 | 0.00 | 89 | 1011.2 |
| 20260505074023 | 7 | 314 | 3.2 | 12.9 | 0.00 | 0.00 | 0.00 | 89 | 1011.0 |
| 20260505071837 | 7 | 159 | 1.6 | 12.9 | 0.00 | 0.00 | 0.00 | 88 | 1011.0 |
| 20260505065659 | 7 | 225 | 1.6 | 8.0 | 0.00 | 0.00 | 0.00 | 88 | 1010.8 |
| 20260505064724 | 7 | 257 | 1.6 | 12.9 | 0.00 | 0.00 | 0.00 | 88 | 1010.6 |
| 20260505063722 | 7 | 216 | 1.6 | 12.9 | 0.00 | 0.00 | 0.00 | 88 | 1010.4 |
| 20260505062719 | 7 | 246 | 0.0 | 9.7 | 0.00 | 0.00 | 0.00 | 87 | 1010.4 |
| 20260505061655 | 7 | 249 | 1.6 | 9.7 | 0.00 | 0.00 | 0.00 | 87 | 1010.4 |
| 20260505055508 | 7 | 232 | 1.6 | 8.0 | 0.00 | 0.00 | 0.00 | 87 | 1010.4 |
| 20260505054454 | 7 | 224 | 1.6 | 9.7 | 0.00 | 0.00 | 0.00 | 86 | 1010.3 |
| 20260505053512 | 7 | 203 | 3.2 | 9.7 | 0.00 | 0.00 | 0.00 | 86 | 1010.4 |
| 20260505052529 | 7 | 144 | 1.6 | 9.7 | 0.00 | 0.00 | 0.00 | 86 | 1010.4 |
| 20260505051519 | 7 | 165 | 1.6 | 12.9 | 0.00 | 0.00 | 0.00 | 86 | 1010.2 |
| 20260505050448 | 7 | 225 | 3.2 | 12.9 | 0.00 | 0.00 | 0.00 | 86 | 1010.5 |
| 20260505041327 | 7 | 238 | 3.2 | 14.5 | 0.00 | 0.00 | 0.00 | 85 | 1010.6 |
| 20260505040344 | 7 | 273 | 3.2 | 14.5 | 0.00 | 0.00 | 0.00 | 84 | 1010.6 |
| 20260505035311 | 7 | 224 | 3.2 | 14.5 | 0.00 | 0.03 | 0.00 | 84 | 1010.6 |
| 20260505033123 | 8 | 180 | 3.2 | 16.1 | 0.00 | 0.10 | 0.00 | 83 | 1010.4 |
| 20260505032109 | 8 | 224 | 4.8 | 16.1 | 0.00 | 0.18 | 0.00 | 83 | 1010.3 |
| 20260505031054 | 8 | 266 | 3.2 | 17.7 | 0.00 | 0.25 | 0.00 | 83 | 1010.1 |
| 20260505030039 | 8 | 285 | 4.8 | 17.7 | 0.00 | 0.25 | 0.00 | 82 | 1010.0 |
| 20260505023823 | 8 | 233 | 4.8 | 16.1 | 0.00 | 0.38 | 0.25 | 81 | 1009.9 |
| 20260505022829 | 8 | 280 | 6.4 | 17.7 | 0.00 | 0.46 | 0.25 | 81 | 1009.7 |
| 20260505021838 | 8 | 264 | 6.4 | 20.9 | 0.00 | 0.51 | 0.25 | 82 | 1009.7 |
| 20260505020804 | 8 | 271 | 6.4 | 17.7 | 0.00 | 0.58 | 0.25 | 82 | 1009.7 |
| 20260505015750 | 8 | 276 | 6.4 | 17.7 | 0.00 | 0.66 | 0.25 | 82 | 1009.6 |
| 20260505014753 | 8 | 236 | 8.0 | 16.1 | 0.00 | 0.74 | 0.25 | 83 | 1009.6 |
| 20260505013740 | 8 | 216 | 4.8 | 17.7 | 0.00 | 0.84 | 0.25 | 83 | 1009.5 |
| 20260505011640 | 8 | 249 | 4.8 | 17.7 | 0.00 | 1.02 | 0.25 | 83 | 1009.4 |
| 20260505010636 | 8 | 282 | 3.2 | 14.5 | 0.00 | 1.12 | 0.25 | 84 | 1009.3 |
| 20260505005638 | 8 | 177 | 3.2 | 14.5 | 0.00 | 1.22 | 0.25 | 84 | 1009.3 |
| 20260505002407 | 8 | 232 | 4.8 | 14.5 | 0.00 | 1.57 | 0.25 | 84 | 1008.8 |
| 20260505001334 | 8 | 263 | 4.8 | 12.9 | 0.00 | 1.68 | 0.25 | 84 | 1008.6 |
| 20260505000312 | 8 | 224 | 4.8 | 20.9 | 0.00 | 1.78 | 0.25 | 83 | 1008.5 |
| 20260504234209 | 8 | 290 | 4.8 | 17.7 | 0.00 | 1.96 | 0.25 | 83 | 1008.3 |
| 20260504233144 | 8 | 242 | 6.4 | 17.7 | 0.00 | 2.06 | 0.25 | 82 | 1007.9 |
| 20260504230949 | 8 | 248 | 4.8 | 16.1 | 0.00 | 2.24 | 0.25 | 82 | 1007.7 |
| 20260504225946 | 8 | 278 | 6.4 | 16.1 | 0.00 | 2.34 | 0.25 | 81 | 1007.4 |
| 20260504224958 | 8 | 283 | 4.8 | 16.1 | 0.00 | 2.39 | 0.25 | 81 | 1007.3 |
| 20260504223957 | 8 | 261 | 6.4 | 17.7 | 0.00 | 2.44 | 0.25 | 80 | 1007.2 |
| 20260504221833 | 9 | 237 | 4.8 | 19.3 | 0.00 | 2.49 | 0.25 | 79 | 1006.8 |
| 20260504220834 | 9 | 225 | 6.4 | 20.9 | 0.00 | 2.49 | 0.25 | 79 | 1006.7 |
| 20260504215820 | 9 | 251 | 6.4 | 20.9 | 0.00 | 2.49 | 0.25 | 78 | 1006.4 |
| 20260504214759 | 10 | 282 | 8.0 | 19.3 | 0.00 | 2.49 | 0.25 | 77 | 1006.5 |
| 20260504213738 | 10 | 270 | 6.4 | 20.9 | 0.00 | 2.49 | 0.25 | 77 | 1006.6 |
| 20260504211540 | 10 | 224 | 6.4 | 22.5 | 0.00 | 2.49 | 0.25 | 78 | 1006.6 |
| 20260504210505 | 10 | 229 | 3.2 | 16.1 | 0.00 | 2.49 | 0.25 | 79 | 1006.7 |
| 20260504204330 | 9 | 225 | 4.8 | 19.3 | 0.00 | 2.49 | 0.25 | 79 | 1007.0 |
| 20260504202240 | 9 | 254 | 4.8 | 16.1 | 0.00 | 2.49 | 0.25 | 78 | 1007.3 |
| 20260504201253 | 9 | 248 | 4.8 | 16.1 | 0.00 | 2.49 | 0.25 | 78 | 1007.1 |
| 20260504195131 | 10 | 247 | 8.0 | 27.4 | 0.00 | 2.49 | 0.25 | 77 | 1007.2 |
| 20260504194057 | 10 | 221 | 6.4 | 25.7 | 0.00 | 2.49 | 0.25 | 77 | 1007.1 |
| 20260504191847 | 10 | 248 | 9.7 | 22.5 | 0.00 | 2.57 | 0.25 | 73 | 1006.8 |
| 20260504190825 | 12 | 259 | 9.7 | 22.5 | 0.00 | 2.62 | 0.25 | 69 | 1006.6 |
| 20260504185809 | 12 | 281 | 9.7 | 20.9 | 0.00 | 2.67 | 0.25 | 69 | 1006.5 |
| 20260504184834 | 12 | 279 | 8.0 | 22.5 | 0.00 | 2.74 | 0.25 | 68 | 1006.3 |
| 20260504182655 | 12 | 264 | 9.7 | 29.0 | 0.00 | 2.90 | 0.25 | 68 | 1006.7 |
| 20260504180512 | 12 | 234 | 8.0 | 20.9 | 0.00 | 3.05 | 0.25 | 69 | 1006.6 |
| 20260504175440 | 12 | 200 | 9.7 | 20.9 | 0.00 | 3.10 | 0.25 | 68 | 1006.6 |
| 20260504174432 | 12 | 224 | 8.0 | 25.7 | 0.00 | 3.15 | 0.25 | 70 | 1006.5 |
| 20260504173417 | 11 | 250 | 11.3 | 25.7 | 0.00 | 3.17 | 0.25 | 69 | 1006.6 |
| 20260504172432 | 11 | 284 | 9.7 | 35.4 | 0.00 | 3.25 | 0.25 | 72 | 1006.7 |
| 20260504171427 | 11 | 234 | 9.7 | 35.4 | 0.00 | 3.30 | 0.25 | 71 | 1006.8 |
| 20260504170415 | 11 | 278 | 11.3 | 30.6 | 0.00 | 3.38 | 0.25 | 71 | 1007.0 |
| 20260504160155 | 11 | 257 | 9.7 | 22.5 | 0.00 | 4.09 | 0.25 | 74 | 1007.4 |
| 20260504150134 | 10 | 261 | 9.7 | 22.5 | 0.00 | 5.11 | 0.25 | 74 | 1007.8 |
| 20260504141048 | 10 | 246 | 8.0 | 22.5 | 0.00 | 5.94 | 0.25 | 76 | 1007.9 |
| 20260504110136 | 7 | 236 | 12.9 | 35.4 | 0.00 | 6.50 | 0.25 | 80 | 1006.4 |